Regional Weather Roundup
Issued by NWS Sterling, VA

Home | Current Version | Previous Version | Text Only | Print | Product List | Glossary Off
Versions: 1 2 3 4 5 6 7 8 9 10 11 12 13 14 15 16 17 18 19 20 21 22 23 24 25 26 27 28

000
ASUS41 KLWX 251310
RWRLWX

REGIONAL WEATHER ROUNDUP
NATIONAL WEATHER SERVICE BALTIMORE MD/WASHINGTON DC
900 AM EDT MON JUL 25 2016

Note: "FAIR" indicates few or no clouds below 12,000 feet
with no significant weather and/or obstructions to visibility.
 TC=TEMPERATURE CELSIUS

 * =Non NWS site. Station does not report precipitation (e.g. rain,
    snow, etc.), thunder, or fog.

DCZ001-MDZ009-015-VAZ040>042-051-053>054-251400-
WASHINGTON METRO

CITY           SKY/WX    TMP DP  RH WIND       PRES   REMARKS
WASHINGTON NAT PTSUNNY   88  75  65 S7        29.96F HX  97
DULLES         PTSUNNY   83  74  74 CALM      29.97F
ANDREWS AFB    SUNNY     87  76  71 SW7       29.96F HX  98
FT BELVOIR     FAIR      88  74  64 VRB2      29.96F HX  97
QUANTICO       FAIR      86  76  71 S6        29.97F HX  96
COLLEGE PARK*  FAIR      84  72  65 SW3       29.95F
LEESBURG*      FAIR      86  77  74 S3        29.98F HX  97
MANASSAS*      SUNNY     84  75  74 SW3       29.97F HX  92
GAITHERSBURG*  SUNNY     82  73  74 W5        30.01F

$$

MDZ006>007-011-014-251400-
BALTIMORE METRO

CITY           SKY/WX    TMP DP  RH WIND       PRES   REMARKS
BWI AIRPORT    MOSUNNY   86  73  65 W7        29.94F HX  93
MD SCIENCE CTR   N/A     88  72  58 MISG      29.94F HX  94
MARTIN STATE   MOSUNNY   84  81  89 CALM      29.96F HX  98
ANNAPOLIS      MOSUNNY   86  77  74 W5        29.94F HX  97
FORT MEADE*    SUNNY     81  77  89 SW3       29.98S

$$

MDZ012-015-019>023-251400-
MARYLAND EASTERN SHORE

CITY           SKY/WX    TMP DP  RH WIND       PRES   REMARKS
OCEAN CITY     SUNNY     86  76  71 SW10      29.97R HX  96
SALISBURY      MOSUNNY   86  77  74 SW9       29.96S HX  97
BAY BRIDGE AP* SUNNY     84  79  84 W6        29.95S HX  96
CAMBRIDGE*     SUNNY     82  77  83 SW5       29.95S HX  91
EASTON*        MOSUNNY   84  82  94 SW7       29.98F HX 101

$$

MDZ017>025-251400-
SOUTHERN MARYLAND

CITY           SKY/WX    TMP DP  RH WIND       PRES   REMARKS
PATUXENT RIVER PTSUNNY   86  73  65 W10       29.96F HX  93
ST INIGOES     MOSUNNY   85  75  72 SW9       29.97F HX  93
LEONARDTOWN*   MOSUNNY   84  72  65 SW10      29.98F

$$

MDZ003>005-251400-
NORTH CENTRAL MARYLAND

CITY           SKY/WX    TMP DP  RH WIND       PRES   REMARKS
FREDERICK*     SUNNY     82  75  78 CALM      29.99F
HAGERSTOWN APT SUNNY     82  72  71 SE6       29.98F

$$

MDZ501>502-251400-
WESTERN MARYLAND

CITY           SKY/WX    TMP DP  RH WIND       PRES   REMARKS
OAKLAND*       SUNNY     73  70  88 SW7       30.13S
CUMBERLAND*    SUNNY     79  73  83 CALM      30.03F

$$

VAZ025>031-251400-
SHENANDOAH VALLEY

CITY           SKY/WX    TMP DP  RH WIND       PRES   REMARKS
WINCHESTER*    FAIR      81  72  74 SW7       29.99F
FRONT ROYAL*   FAIR      81  73  78 S6        30.00S
LURAY*         FAIR      79  77  94 SW3       30.02S
NEW MARKET*    FAIR     N/A N/A N/A CALM      30.01F
STAUNTON*      FAIR      78  71  79 CALM      30.06F
WAYNESBORO*    FAIR      79  71  76 CALM      30.07S

$$

WVZ021-048>050-054>055-251400-
EASTERN WEST VIRGINIA PANHANDLE

CITY           SKY/WX    TMP DP  RH WIND       PRES   REMARKS
MARTINSBURG    FAIR      81  72  74 CALM      29.98S
PETERSBURG*    FAIR      80  72  77 CALM      30.02S

$$

VAZ036>039-050-251400-
CENTRAL FOOTHILLS

CITY           SKY/WX    TMP DP  RH WIND       PRES   REMARKS
CHARLOTTESVILL FAIR      86  73  65 VRB3      30.00S HX  93
CULPEPER*      FAIR      84  77  79 CALM      29.99S HX  94
ORANGE*          N/A     82  77  83 S3        30.00F HX  91
GORDONSVILLE*  FAIR      82  76  79 S3        29.99F HX  90
WARRENTON*     FAIR      85  72  64 SW3       29.98S HX  91

$$

VAZ055>057-251400-
NORTH AND CENTRAL PIEDMONT

CITY           SKY/WX    TMP DP  RH WIND       PRES   REMARKS
FREDERICKSBRG* FAIR      83  75  77 SW3       29.97F HX  91
STAFFORD*      FAIR      84  74  70 S5        30.02S HX  91

$$

NCZ024-NYZ072-PAZ021-071-VAZ022-071-251400-
OTHER REGIONAL OBSERVATIONS

CITY           SKY/WX    TMP DP  RH WIND       PRES   REMARKS
NEW YORK CITY  CLOUDY    81  70  69 CALM      29.96F
PHILADELPHIA   CLOUDY    79  73  82 SE5       29.96R
PITTSBURGH     MOSUNNY   79  72  79 SW8       29.99S
ROANOKE        FAIR      80  71  74 VRB3      30.09S
RICHMOND       FAIR      83  74  74 SW8       30.00F
RALEIGH        MOSUNNY   83  76  79 SW8       30.06S HX  91

$$

ANZ530>537-251400-
MARINE OBSERVATIONS

STATION/POSITION TIME  TEMP    WIND        PRES
                       AIR SEA DIR/SP/G
                 (UTC) (F)     (DEG/KT/KT) (MB)
THOMAS PT LIGHT  1300   81 83  220/  6/  6 1015.6S
BALT KEY BRIDGE  1248   84     270/  4/  4 1013.8F
COVE POINT       1248   84     270/ 12/ 16 1014.8F
LEWISETTA        1248   84 87  250/ 10/ 12 1014.5F
SOLOMONS ISLAND  1248   85 85  250/  7/ 10   N/A
PINEY POINT      1248          280/  6/  8   N/A

$$





USA.gov is the U.S. government's official web portal to all federal, state and local government web resources and services.